Location: Korczew
(51.3586°N, 19.4491°E)
Time: 22:44:42
(UTC+00:00)

USA 229 DEB - Pass Details

Date: 19 May 2025
Orbit: 872 x 1339 km, 63.4° (Epoch: 14 June)

Event Time Altitude Azimuth Distance (km) Brightness Sun altitude
Exits shadow 21:33:21 25° 144° (SE) 1,805 4.4 -17.2°
Maximum altitude 21:35:14 30° 114° (ESE) 1,672 4.4 -17.3°
Drops below altitude 10° 21:40:51 10° 57° (ENE) 2,854 6.2 -17.5°
Sets 21:43:55 0° 47° (NE) 3,891 7.1 -17.7°
